FLOCK 3P-78 (42047 NORAD) Tracking and Keplerian Element Data

This shows tracking and keplerian element data for the satellite.

Feedback or suggestion? Click here.




ElementValue
Catalog42047
NameFLOCK 3P-78
Epoch Orbit17643
Epoch Day114.77593218
Epoch Year2020
RAAN183.9294
Inclination97.3697
Eccentricity0.0009181
Argument of Perigee123.0924
Mean Anonmoly237.1198
Mean Motion15.27251773
Decay Rate2.213E-05
L11 42047U 17008DD 20114.77593218 .00002213 00000-0 85547-4 0 9994
L22 42047 97.3697 183.9294 0009181 123.0924 237.1198 15.27251773176438



Live tracking and technical data element details for FLOCK 3P-78 (NORAD 42047). FLOCK 3P-78 can be tracked NOW for your location showing map with azimuth and elevation plus other details from your city location.







IsCatalogInMostPopularTable: catalog: 42047, numindb: 748
Update: records affected: 1



GetName: 42047 FLOCK 3P-78

Hit Count: updated at: Tue, 20 Jan 2026 18:03:32 GMT